Regional Weather Roundup
Issued by NWS Mobile, AL

Home | Current Version | Previous Version | Text Only | Print | Product List | Glossary On
Versions: 1 2 3 4 5 6 7 8 9 10 11 12 13 14 15 16 17 18 19 20 21 22 23 24 25 26 27 28 29 30 31 32 33 34 35 36 37 38 39 40 41 42 43 44 45 46 47 48 49 50
000
ASUS44 KMOB 230510
RWRMOB
REGIONAL WEATHER ROUNDUP
NATIONAL WEATHER SERVICE MOBILE AL
1200 AM CDT SAT AUG 23 2014

NOTE: "FAIR" INDICATES FEW OR NO CLOUDS BELOW 12,000 FEET WITH NO
      SIGNIFICANT WEATHER AND/OR OBSTRUCTIONS TO VISIBILITY.

  * THESE STATIONS ARE PART OF THE UNIVERSITY OF SOUTH ALABAMA
    MESONET AND ARE NOT UNDER NWS OR FAA QUALITY CONTROL.

ALZ061>064-230600-
COASTAL ALABAMA

CITY           SKY/WX    TMP DP  RH WIND       PRES   REMARKS
MOBILE REG APT CLEAR     81  76  84 W3        30.04S
BROOKLEY FIELD CLEAR     82  76  81 W3        30.04S
USA CAMPUS*      N/A     79  75  89 CALM      30.02S
DOG RIVER*       N/A     81  77  89 CALM      30.03S


CITY           SKY/WX    TMP DP  RH WIND       PRES   REMARKS
MOUNT VERNON*  NOT AVBL
SARALAND*      NOT AVBL
BAY MINETTE*   NOT AVBL
LOXLEY*          N/A     77  75  94 W2        30.03S
ROBERTSDALE*     N/A    N/A N/A N/A CALM      30.02S
FAIRHOPE*        N/A     82  77  83 W5        30.02S
ELBERTA*         N/A     79  66  65 CALM      30.02S
FOLEY*         NOT AVBL
GRAND BAY*       N/A     77  75  94 CALM      30.01S
DAUPHIN ISLND* NOT AVBL
BON SCOUR NWR* NOT AVBL
GULF SHORES    CLEAR     80  76  87 W5        30.02S

$$

ALZ051>060-230600-
INTERIOR SOUTHWEST AND SOUTH CENTRAL ALABAMA

CITY           SKY/WX    TMP DP  RH WIND       PRES   REMARKS
GREENVILLE     CLEAR     78  74  87 CALM      30.02S
EVERGREEN      CLEAR     78  75  90 CALM      30.03S
CASTLEBERRY*   NOT AVBL
ATMORE*          N/A     79  75  89 CALM      30.04S
DIXIE*         NOT AVBL
ANDALUSIA/OPP  CLEAR     81  76  84 CALM      30.01F
ANDALUSIA*     NOT AVBL
FLORALA APT    PTCLDY    80  75  84 SW3       30.04S
FLORALA*         N/A     77  75  94 CALM      30.00S

$$

FLZ001>006-230600-
WESTERN FLORIDA PANHANDLE

CITY           SKY/WX    TMP DP  RH WIND       PRES   REMARKS
PENSACOLA      CLEAR     82  75  79 W9        30.01F
NAS PENSACOLA  CLEAR     81  76  84 NW5       30.01S
MILTON         CLEAR     80  74  81 W8        30.02S
WHTNG S FIELD  CLEAR     81  75  82 NW3       30.02S


CITY           SKY/WX    TMP DP  RH WIND       PRES   REMARKS
WALNUT HILL*   NOT AVBL
JAY*           NOT AVBL
DUKE FIELD     PTCLDY    81  79  93 W3        30.01F
CRESTVIEW      CLEAR     78  75  90 CALM      30.03S
VALPARAISO     PTCLDY    82  77  87 NW3       30.01S
DESTIN         CLEAR     86  79  79 W5        30.01S HX  99

$$

MSZ076-079-230600-
INTERIOR SOUTHEAST MISSISSIPPI

CITY           SKY/WX    TMP DP  RH WIND       PRES   REMARKS
LEAKESVILLE*     N/A     79  73  83 W2          N/A
AGRICOLA*      NOT AVBL

$$

MARINE OBSERVATIONS

STATION/POSITION TIME  TEMP    WIND        PRES    WAVE
                       AIR SEA DIR/SP/G            HT/PER
                 (UTC) (F)     (DEG/KT/KT) (MB)    (FT/S)
PASCAGOULA       0500   87     250/  4/  6 1016.5F
PETIT BOIS ISLND 0500   87     250/  8/  9 1017.0S
GRAND BAY        0400   85     270/  4     1018.0S
KATRINA CUT      0400   87     240/  8     1016.9F
CEDAR POINT      0400   86     250/  9     1016.6F
E DAUPHIN ISLAND 0500   86     260/  4/  5 1016.7R
MIDDLE BAY LIGHT 0400   86     270/  6     1015.9F
USCG MOBILE BAY  0500   84 86  260/  3/  4 1015.6S
STATE DOCKS      0500   85 88              1016.4S
MEAHER PARK      0400   87     240/  4     1016.3S
WEEKS BAY        0400   78                   N/A
FORT MORGAN      0500   86     270/  9/ 10 1016.3R
12 S ORANGE BCH  0500   86 87  260/ 12/ 14 1016.4F   1
PENSACOLA BAY    0500   85 88  300/  4/  6 1016.5F
64 S DAUPHIN ISL 0444   86 89  220/  6/  8 1017.1
67 S FORT MORGAN 0400   85                 1016.9S

$$

SELECTED LOCATIONS ACROSS THE REGION

CITY           SKY/WX    TMP DP  RH WIND       PRES   REMARKS
NEW ORLEANS    CLEAR     83  75  77 SW8       30.03S
GULFPORT       CLEAR     81  75  82 CALM      30.02S
PASCAGOULA AP  CLEAR     77  75  93 CALM      30.03R FOG
PASCAGOULA*      N/A     81  77  89 CALM      30.02S
HATTIESBURG    FOG       80  76  87 CALM      30.03S VSB 1
LAUREL         CLEAR     77  72  83 CALM      30.04F
MERIDIAN       CLEAR     76  73  91 CALM      30.03S
JACKSON        CLEAR     76  74  93 CALM      30.03S
MONTGOMERY     CLEAR     81  75  82 S3        30.01R
TROY           CLEAR     77  75  93 CALM      30.03S
KINSTON*       NOT AVBL
GENEVA*          N/A     77  73  88 CALM      30.03S
ASHFORD*       NOT AVBL
DOTHAN         CLEAR     80  76  87 SW5       30.05S
PANAMA CITY    CLEAR     80  77  90 CALM      30.00S

$$




USA.gov is the U.S. government's official web portal to all federal, state and local government web resources and services.